Holdrege, NE

8:57 PM CST on January 23, 2018 (GMT -0600)
Brewster

Weather History for KHDE - January, 2013

Change the Weather History Date:

Friday, January 11, 2013

  Actual Average Record
Temperature  
Mean Temperature 30 °F -  
Max Temperature 39 °F 31 °F 74 °F (1990)
Min Temperature 20 °F 10 °F -17 °F (1974)
Degree Days  
Heating Degree Days 36    
Moisture  
Dew Point 32 °F    
Average Humidity 92    
Maximum Humidity 97    
Minimum Humidity 73    
Precipitation  
Precipitation 0.00 in - - ()
Sea Level Pressure  
Sea Level Pressure 29.49 in    
Wind  
Wind Speed 12 mph (SW)    
Max Wind Speed 26 mph    
Max Gust Speed 34 mph    
Visibility 4 miles    
Events Fog , Snow    
Averages and records for this station are not official NWS values.
T = Trace of Precipitation, MM = Missing Value Source: NWS Daily Summary

Daily Weather History Graph

Daily Weather History Graph

Search for Another Location

Airport or City:

Trip Planner

Search our weather history database for the weather conditions in past years. The results will help you decide how hot, cold, wet, or windy it might be!

Date:

Astronomy

Jan. 11, 2013 Rise Set
Actual Time 7:59 AM CST 5:31 PM CST
Civil Twilight 7:29 AM CST 6:01 PM CST
Nautical Twilight 6:55 AM CST 6:35 PM CST
Astronomical Twilight 6:23 AM CST 7:08 PM CST
Moon 7:34 AM CST (1/11) 5:51 PM CST (1/11)
Length of Visible Light 10h 32m
Length of Day
9h 31m
Waning Crescent, 0% of the Moon is Illuminated
Jan 11
Waning Crescent
Jan 11
New
Jan 18
First Quarter
Jan 26
Full
Feb 3
Last Quarter

Hourly Weather History & Observations

Time (CST) Temp. Windchill Dew Point Humidity Pressure Visibility Wind Dir Wind Speed Gust Speed Precip Events Conditions
12:15 AM 36.3 °F 29.5 °F 35.2 °F 96% 29.60 in 0.8 mi South 9.2 mph - N/A   Overcast
12:35 AM 36.1 °F 29.3 °F 35.2 °F 97% 29.58 in 0.5 mi South 9.2 mph - N/A Fog Fog
12:55 AM 36.1 °F 28.7 °F 35.2 °F 97% 29.57 in 0.8 mi South 10.4 mph - N/A   Overcast
1:15 AM 36.1 °F 28.7 °F 35.2 °F 97% 29.58 in 0.5 mi South 10.4 mph - N/A Fog Fog
1:35 AM 36.5 °F 28.2 °F 35.4 °F 96% 29.57 in 0.5 mi SSW 12.7 mph - N/A Fog Fog
1:55 AM 36.5 °F 27.0 °F 35.6 °F 97% 29.55 in 0.5 mi South 16.1 mph 20.7 mph N/A Fog Fog
2:15 AM 36.5 °F 28.2 °F 35.6 °F 97% 29.53 in 0.5 mi South 12.7 mph - N/A Fog Fog
2:35 AM 36.3 °F 28.4 °F 35.2 °F 96% 29.53 in 0.5 mi South 11.5 mph - N/A Fog Fog
2:55 AM 36.1 °F 27.3 °F 35.2 °F 97% 29.51 in 0.5 mi South 13.8 mph - N/A Fog Fog
3:15 AM 36.1 °F 27.7 °F 35.2 °F 97% 29.50 in 0.2 mi South 12.7 mph - N/A Fog Fog
3:35 AM 36.1 °F 29.3 °F 35.2 °F 97% 29.48 in 0.2 mi South 9.2 mph - N/A Fog Fog
3:55 AM 36.5 °F 29.7 °F 35.4 °F 96% 29.50 in 0.2 mi South 9.2 mph - N/A Fog Fog
4:15 AM 36.5 °F 29.2 °F 35.6 °F 97% 29.48 in 0.2 mi SSE 10.4 mph - N/A Fog Fog
4:35 AM 36.1 °F 29.3 °F 35.2 °F 97% 29.47 in 0.2 mi South 9.2 mph - N/A Fog Fog
4:55 AM 36.5 °F 29.2 °F 35.4 °F 96% 29.44 in 0.2 mi South 10.4 mph - N/A Fog Fog
5:15 AM 36.3 °F 28.0 °F 35.2 °F 96% 29.44 in 0.2 mi South 12.7 mph - N/A Fog Fog
5:35 AM 36.5 °F 29.2 °F 35.6 °F 97% 29.42 in 0.2 mi South 10.4 mph - N/A Fog Fog
5:55 AM 36.9 °F 28.7 °F 36.0 °F 97% 29.43 in 0.5 mi South 12.7 mph - N/A Fog Fog
6:15 AM 37.4 °F 28.5 °F 36.5 °F 97% 29.41 in 0.5 mi SSW 15.0 mph - N/A Fog Fog
6:55 AM 37.4 °F 30.3 °F 36.3 °F 96% 29.40 in 0.8 mi South 10.4 mph - N/A   Overcast
7:15 AM 37.4 °F 30.3 °F 36.5 °F 97% 29.40 in 0.8 mi South 10.4 mph - N/A   Overcast
7:35 AM 37.6 °F 30.0 °F 36.5 °F 96% 29.41 in 0.8 mi SSW 11.5 mph - N/A   Overcast
7:55 AM 37.6 °F 29.1 °F 36.5 °F 96% 29.40 in 0.8 mi South 13.8 mph - N/A   Overcast
8:15 AM 37.4 °F 28.9 °F 36.1 °F 95% 29.39 in 0.2 mi South 13.8 mph - N/A Fog Fog
8:35 AM 36.5 °F 28.2 °F 35.6 °F 97% 29.38 in 0.2 mi South 12.7 mph 19.6 mph N/A Fog Fog
8:55 AM 36.5 °F 27.8 °F 35.6 °F 97% 29.38 in 0.2 mi South 13.8 mph - N/A Fog Fog
9:15 AM 36.1 °F 27.3 °F 35.2 °F 97% 29.39 in 0.2 mi South 13.8 mph - N/A Fog Fog
9:35 AM 36.0 °F 28.0 °F 35.1 °F 97% 29.39 in 0.2 mi South 11.5 mph - N/A Fog Fog
9:55 AM 36.1 °F 28.2 °F 35.2 °F 97% 29.39 in 0.2 mi SSW 11.5 mph - N/A Fog Fog
10:15 AM 36.1 °F 27.7 °F 35.2 °F 97% 29.38 in 1.0 mi South 12.7 mph - N/A   Overcast
10:35 AM 36.5 °F 29.2 °F 35.6 °F 97% 29.38 in 5.0 mi South 10.4 mph - N/A   Scattered Clouds
10:55 AM 36.5 °F 30.3 °F 35.6 °F 97% 29.39 in 5.0 mi South 8.1 mph - N/A   Clear
11:15 AM 36.9 °F 34.3 °F 36.0 °F 97% 29.37 in 7.0 mi SSE 3.5 mph - N/A   Clear
11:35 AM 37.0 °F 31.6 °F 36.0 °F 96% 29.38 in 7.0 mi South 6.9 mph - N/A   Clear
11:55 AM 37.6 °F 33.1 °F 36.5 °F 96% 29.36 in 10.0 mi WSW 5.8 mph - N/A   Clear
12:15 PM 38.1 °F 35.7 °F 37.0 °F 96% 29.35 in 10.0 mi SSW 3.5 mph - N/A   Clear
12:35 PM 38.5 °F 35.0 °F 37.4 °F 96% 29.34 in 10.0 mi South 4.6 mph - N/A   Clear
12:55 PM 39.0 °F - 37.6 °F 95% 29.33 in 10.0 mi Calm Calm - N/A   Clear
1:15 PM 37.6 °F 33.1 °F 35.8 °F 93% 29.33 in 3.0 mi NNE 5.8 mph - N/A   Clear
1:35 PM 37.6 °F 33.1 °F 36.1 °F 95% 29.33 in 1.0 mi ENE 5.8 mph - N/A   Mostly Cloudy
2:15 PM 38.1 °F 32.9 °F 36.7 °F 95% 29.32 in 3.0 mi NNE 6.9 mph - N/A   Mostly Cloudy
2:35 PM 37.9 °F 32.7 °F 36.7 °F 95% 29.32 in 1.0 mi NE 6.9 mph - N/A   Overcast
2:55 PM 38.1 °F 32.9 °F 36.9 °F 95% 29.33 in 2.0 mi NE 6.9 mph - N/A   Overcast
3:15 PM 37.9 °F 32.7 °F 36.7 °F 95% 29.34 in 4.0 mi NNE 6.9 mph - N/A   Overcast
3:35 PM 37.9 °F 31.5 °F 36.7 °F 95% 29.34 in 5.0 mi NNE 9.2 mph - N/A   Overcast
3:55 PM 38.3 °F 31.4 °F 36.9 °F 95% 29.34 in 7.0 mi NNE 10.4 mph - N/A   Mostly Cloudy
4:15 PM 38.5 °F 31.6 °F 36.9 °F 94% 29.36 in 7.0 mi North 10.4 mph - N/A   Scattered Clouds
4:35 PM 37.6 °F 31.0 °F 35.8 °F 93% 29.37 in 7.0 mi North 9.2 mph - N/A   Scattered Clouds
4:55 PM 37.8 °F 30.7 °F 36.0 °F 93% 29.39 in 10.0 mi North 10.4 mph - N/A   Overcast
5:15 PM 37.8 °F 28.3 °F 35.6 °F 92% 29.41 in 10.0 mi NNW 17.3 mph 25.3 mph N/A   Overcast
5:35 PM 34.2 °F 23.3 °F 32.0 °F 92% 29.43 in 7.0 mi North 18.4 mph 28.8 mph N/A   Overcast
5:55 PM 32.4 °F 20.9 °F 30.9 °F 94% 29.45 in 7.0 mi North 18.4 mph 26.5 mph N/A   Overcast
6:15 PM 32.0 °F 20.5 °F 30.6 °F 94% 29.49 in 10.0 mi NNW 18.4 mph 28.8 mph N/A   Overcast
6:35 PM 30.9 °F 17.8 °F 28.6 °F 91% 29.54 in 7.0 mi NNW 23.0 mph 32.2 mph N/A   Overcast
6:55 PM 30.6 °F 18.6 °F 28.4 °F 92% 29.57 in 4.0 mi NW 18.4 mph 27.6 mph N/A   Overcast
7:15 PM 29.8 °F 16.6 °F 27.1 °F 90% 29.59 in 7.0 mi NNW 21.9 mph 31.1 mph N/A   Overcast
7:35 PM 30.0 °F 15.7 °F 27.3 °F 90% 29.61 in 10.0 mi NW 26.5 mph 32.2 mph N/A   Overcast
7:55 PM 27.5 °F 12.9 °F 23.0 °F 83% 29.64 in 10.0 mi NW 24.2 mph 34.5 mph N/A   Overcast
8:15 PM 25.5 °F 10.3 °F 21.9 °F 86% 29.68 in 2.5 mi NW 24.2 mph 34.5 mph N/A Snow Light Snow
8:35 PM 24.6 °F 9.7 °F 20.8 °F 86% 29.70 in 4.0 mi NW 21.9 mph 28.8 mph N/A Snow Light Snow
8:55 PM 24.3 °F 8.6 °F 19.2 °F 81% 29.71 in 10.0 mi NW 24.2 mph 32.2 mph N/A   Mostly Cloudy
9:15 PM 23.4 °F 8.1 °F 16.9 °F 76% 29.73 in 10.0 mi NW 21.9 mph 33.4 mph N/A   Scattered Clouds
9:35 PM 22.3 °F 7.8 °F 15.8 °F 76% 29.74 in 10.0 mi NW 18.4 mph 29.9 mph N/A   Clear
9:55 PM 22.1 °F 6.4 °F 15.8 °F 77% 29.76 in 10.0 mi WNW 21.9 mph 27.6 mph N/A   Clear
10:15 PM 21.6 °F 6.5 °F 14.7 °F 75% 29.78 in 10.0 mi WNW 19.6 mph 31.1 mph N/A   Clear
10:35 PM 21.7 °F 8.5 °F 14.5 °F 74% 29.80 in 10.0 mi WNW 15.0 mph 24.2 mph N/A   Clear
10:55 PM 21.2 °F 7.3 °F 13.6 °F 73% 29.82 in 10.0 mi WNW 16.1 mph - N/A   Clear
11:35 PM 20.8 °F 8.4 °F 14.5 °F 77% 29.85 in 10.0 mi West 12.7 mph - N/A   Clear
11:55 PM 21.0 °F 8.6 °F 14.0 °F 74% 29.85 in 10.0 mi WNW 12.7 mph - N/A   Scattered Clouds